Weather History for KEZM - July, 2013

Change the Weather History Date:

Friday, July 26, 2013

  Actual Average Record
Temperature  
Mean Temperature 84 °F -  
Max Temperature 95 °F 91 °F 95 °F (2013)
Min Temperature 73 °F 70 °F 73 °F (2013)
Cooling Degree Days 19    
Growing Degree Days 34 (Base 50)    
Moisture  
Dew Point 75 °F    
Average Humidity 81    
Maximum Humidity 100    
Minimum Humidity 52    
Precipitation  
Precipitation 0.00 in - - ()
Sea Level Pressure  
Sea Level Pressure 30.03 in    
Wind  
Wind Speed 1 mph (SE)    
Max Wind Speed 13 mph    
Max Gust Speed 21 mph    
Visibility 8 miles    
Events Thunderstorm    
Averages and records for this station are not official NWS values.
T = Trace of Precipitation, MM = Missing Value Source: NWS Daily Summary

Daily Weather History Graph

Daily Weather History Graph

Search for Another Location

Airport or City:

Trip Planner

Search our weather history database for the weather conditions in past years. The results will help you decide how hot, cold, wet, or windy it might be!

Date:

Astronomy

Jul. 26, 2013 Rise Set
Actual Time 6:43 AM EDT 8:34 PM EDT
Civil Twilight 6:16 AM EDT 9:01 PM EDT
Nautical Twilight 5:43 AM EDT 9:33 PM EDT
Astronomical Twilight 5:09 AM EDT 10:08 PM EDT
Moon 11:08 PM EDT (7/26) 10:59 AM EDT (7/26)
Length of Visible Light 14h 44m
Length of Day
13h 50m
Waning Gibbous, 80% of the Moon is Illuminated
Jul 26
Waning Gibbous
Jul 29
Last Quarter
Aug 6
New
Aug 14
First Quarter
Aug 20
Full

Hourly Weather History & Observations

Time (EDT) Temp. Heat Index Dew Point Humidity Pressure Visibility Wind Dir Wind Speed Gust Speed Precip Events Conditions
12:15 AM 77.2 °F - 74.7 °F 92% 30.00 in 10.0 mi Calm Calm - N/A   Clear
12:35 AM 76.5 °F - 74.3 °F 93% 30.00 in 10.0 mi Calm Calm - N/A   Clear
12:55 AM 77.2 °F - 74.7 °F 92% 30.00 in 10.0 mi Calm Calm - N/A   Clear
1:15 AM 75.2 °F - 74.5 °F 98% 30.00 in 7.0 mi Calm Calm - N/A   Clear
1:35 AM 75.6 °F - 75.2 °F 99% 29.99 in 7.0 mi Calm Calm - N/A   Clear
1:55 AM 75.2 °F - 74.7 °F 98% 29.99 in 5.0 mi Calm Calm - N/A   Clear
2:15 AM 75.0 °F - 74.5 °F 98% 29.99 in 5.0 mi Calm Calm - N/A   Clear
2:35 AM 74.5 °F - 74.5 °F 100% 29.99 in 3.0 mi Calm Calm - N/A   Clear
2:55 AM 75.7 °F - 75.7 °F 100% 30.00 in 7.0 mi Calm Calm - N/A   Clear
3:15 AM 76.1 °F - 75.4 °F 98% 30.00 in 7.0 mi Calm Calm - N/A   Clear
3:35 AM 74.8 °F - 74.7 °F 99% 30.00 in 4.0 mi Calm Calm - N/A   Clear
3:55 AM 74.7 °F - 74.7 °F 100% 30.00 in 4.0 mi Calm Calm - N/A   Clear
4:15 AM 75.2 °F - 74.8 °F 99% 30.00 in 5.0 mi Calm Calm - N/A   Clear
4:35 AM 74.3 °F - 74.3 °F 100% 30.00 in 3.0 mi Calm Calm - N/A   Clear
4:55 AM 73.9 °F - 73.9 °F 100% 30.00 in 2.5 mi Calm Calm - N/A   Clear
5:15 AM 74.3 °F - 74.3 °F 100% 30.01 in 2.0 mi Calm Calm - N/A   Clear
5:35 AM 74.5 °F - 74.5 °F 100% 30.01 in 4.0 mi Calm Calm - N/A   Clear
5:55 AM 74.5 °F - 74.5 °F 100% 30.02 in 3.0 mi Calm Calm - N/A   Clear
6:15 AM 74.5 °F - 74.5 °F 100% 30.03 in 4.0 mi ESE 3.5 mph - N/A   Clear
6:35 AM 75.2 °F - 75.2 °F 100% 30.03 in 5.0 mi Calm Calm - N/A   Clear
6:55 AM 74.7 °F - 74.5 °F 99% 30.04 in 4.0 mi Calm Calm - N/A   Clear
7:15 AM 74.8 °F - 74.5 °F 99% 30.04 in 3.0 mi Calm Calm - N/A   Clear
7:35 AM 73.9 °F - 73.9 °F 100% 30.05 in 1.5 mi Calm Calm - N/A   Mist
7:55 AM 74.3 °F - 74.3 °F 100% 30.05 in 1.8 mi Calm Calm - N/A   Mist
8:15 AM 75.4 °F - 75.4 °F 100% 30.06 in 3.0 mi Calm Calm - N/A   Clear
8:35 AM 77.4 °F - 75.9 °F 95% 30.06 in 7.0 mi Calm Calm - N/A   Clear
8:55 AM 79.0 °F - 76.1 °F 91% 30.06 in 10.0 mi Calm Calm - N/A   Clear
9:15 AM 79.9 °F - 75.9 °F 88% 30.06 in 10.0 mi SE 3.5 mph - N/A   Clear
9:35 AM 82.6 °F 90.2 °F 75.9 °F 80% 30.07 in 10.0 mi SE 3.5 mph - N/A   Clear
9:55 AM 83.5 °F 91.6 °F 75.6 °F 77% 30.07 in 10.0 mi ESE 3.5 mph - N/A   Clear
10:15 AM 84.9 °F 93.7 °F 75.6 °F 73% 30.07 in 10.0 mi ESE 3.5 mph - N/A   Clear
10:35 AM 85.8 °F 95.9 °F 76.1 °F 73% 30.08 in 10.0 mi SSE 4.6 mph - N/A   Clear
10:55 AM 86.0 °F 96.0 °F 76.1 °F 72% 30.07 in 10.0 mi Calm Calm - N/A   Clear
11:15 AM 87.6 °F 98.7 °F 76.3 °F 69% 30.08 in 10.0 mi SE 3.5 mph - N/A   Clear
11:35 AM 87.8 °F 98.1 °F 75.7 °F 67% 30.08 in 10.0 mi East 4.6 mph - N/A   Clear
11:55 AM 88.9 °F 100.3 °F 76.1 °F 66% 30.08 in 10.0 mi Calm Calm - N/A   Clear
12:15 PM 89.6 °F 102.2 °F 77.0 °F 66% 30.07 in 10.0 mi SE 5.8 mph - N/A   Clear
12:35 PM 90.7 °F 104.5 °F 77.4 °F 65% 30.07 in 10.0 mi SE 3.5 mph - N/A   Clear
12:55 PM 91.0 °F 102.9 °F 76.1 °F 61% 30.07 in 10.0 mi ESE 3.5 mph - N/A   Scattered Clouds
1:15 PM 92.7 °F 106.4 °F 77.2 °F 60% 30.06 in 10.0 mi South 6.9 mph - N/A   Scattered Clouds
1:35 PM 91.0 °F 103.5 °F 76.5 °F 62% 30.06 in 10.0 mi ESE 4.6 mph - N/A   Scattered Clouds
1:55 PM 91.0 °F 104.2 °F 77.0 °F 63% 30.05 in 10.0 mi East 5.8 mph - N/A   Overcast
2:15 PM 93.4 °F 106.9 °F 76.6 °F 58% 30.05 in 10.0 mi ESE 4.6 mph - N/A   Scattered Clouds
2:35 PM 93.4 °F 105.5 °F 75.4 °F 56% 30.04 in 10.0 mi ESE 5.8 mph - N/A   Scattered Clouds
2:55 PM 92.7 °F 104.3 °F 75.4 °F 57% 30.03 in 10.0 mi South 6.9 mph - N/A   Scattered Clouds
3:15 PM 93.6 °F 105.9 °F 75.6 °F 56% 30.02 in 10.0 mi SSW 3.5 mph - N/A   Scattered Clouds
3:35 PM 94.1 °F 104.5 °F 74.3 °F 52% 30.02 in 10.0 mi Calm Calm - N/A   Clear
3:55 PM 95.2 °F 107.1 °F 75.2 °F 52% 30.01 in 10.0 mi ESE 3.5 mph - N/A   Clear
4:15 PM 92.7 °F 103.7 °F 74.7 °F 56% 30.00 in 10.0 mi Calm Calm - N/A   Clear
4:35 PM 94.1 °F 105.9 °F 75.2 °F 54% 29.99 in 10.0 mi Calm Calm - N/A   Clear
4:55 PM 93.7 °F 104.3 °F 74.1 °F 53% 29.99 in 10.0 mi Calm Calm - N/A   Clear
5:15 PM 94.8 °F 106.2 °F 74.7 °F 52% 30.00 in 10.0 mi SE 3.5 mph - N/A   Clear
5:35 PM 94.3 °F 104.9 °F 74.3 °F 52% 30.00 in 10.0 mi Calm Calm - N/A   Clear
5:55 PM 92.3 °F 102.2 °F 73.8 °F 55% 30.01 in 10.0 mi South 3.5 mph - N/A   Clear
6:15 PM 90.5 °F 104.0 °F 77.2 °F 65% 30.00 in 10.0 mi Calm Calm - N/A   Clear
6:35 PM 90.0 °F 105.8 °F 78.8 °F 70% 30.00 in 10.0 mi Calm Calm - N/A   Clear
6:55 PM 85.1 °F 95.8 °F 77.0 °F 77% 30.01 in 10.0 mi West 12.7 mph 20.7 mph N/A   Mostly Cloudy
7:15 PM 83.5 °F 92.2 °F 76.3 °F 79% 30.00 in 10.0 mi West 4.6 mph - N/A Thunderstorm Scattered Clouds
7:35 PM 83.3 °F 91.4 °F 75.9 °F 78% 30.02 in 10.0 mi WSW 4.6 mph - N/A Thunderstorm Thunderstorm
7:55 PM 83.1 °F 90.7 °F 75.2 °F 77% 30.01 in 10.0 mi WSW 3.5 mph - N/A Thunderstorm Mostly Cloudy
8:15 PM 82.4 °F 89.8 °F 75.7 °F 80% 30.02 in 10.0 mi SSW 4.6 mph - N/A Thunderstorm Thunderstorm
8:35 PM 81.1 °F 87.0 °F 74.7 °F 81% 30.01 in 10.0 mi South 5.8 mph - N/A Thunderstorm Mostly Cloudy
8:55 PM 80.6 °F 85.9 °F 74.5 °F 82% 30.01 in 10.0 mi East 4.6 mph - N/A   Scattered Clouds
9:15 PM 79.9 °F - 74.7 °F 84% 30.01 in 10.0 mi SSE 3.5 mph - N/A Thunderstorm Scattered Clouds
9:35 PM 79.9 °F - 74.5 °F 83% 30.03 in 10.0 mi Calm Calm - N/A   Mostly Cloudy
9:55 PM 79.7 °F - 75.2 °F 86% 30.03 in 10.0 mi Calm Calm - N/A   Mostly Cloudy
10:15 PM 79.9 °F - 75.2 °F 86% 30.04 in 10.0 mi ESE 3.5 mph - N/A   Overcast
10:35 PM 79.2 °F - 75.6 °F 89% 30.03 in 10.0 mi ESE 4.6 mph - N/A   Mostly Cloudy
10:55 PM 79.0 °F - 76.1 °F 91% 30.04 in 10.0 mi ESE 4.6 mph - N/A   Scattered Clouds
11:15 PM 78.4 °F - 76.3 °F 93% 30.05 in 10.0 mi SSE 4.6 mph - N/A   Mostly Cloudy
11:35 PM 78.8 °F - 76.5 °F 92% 30.05 in 10.0 mi ESE 3.5 mph - N/A   Overcast
11:55 PM 78.8 °F - 76.6 °F 93% 30.05 in 10.0 mi ESE 3.5 mph - N/A Thunderstorm Overcast